QPF
0.01 0.03 0.06 0.08 0.13 0.18 0.16 0.13 0.08 0.06 0.04 0.03 0.02 0.03 0.06 0.09 0.13 0.11 0.13 0.11 0.04 0.03 0.02 0.01 0.04 0.05 0.05 0.05 0.04 0.04 0.05 0.03 0.04 0.03 0.03 0.03 0.02 0.02 0.02 0.02 0.03 0.03 0.03 0.03 0.03 0.03 0.03 0.03 0.01
0.03 0.04 0.05 0.10 0.16 0.15 0.12 0.09 0.07 0.04 0.02 0.01 0.01 0.01 0.04 0.03 0.03 0.06 0.11 0.08 0.03 0.03 0.03 0.02 0.04 0.04 0.04 0.04 0.03 0.03 0.03 0.03 0.04 0.03 0.02 0.02 0.02 0.02 0.02 0.02 0.02 0.02 0.02 0.02 0.02 0.02 0.02 0.03 0.02
0.02 0.04 0.07 0.13 0.15 0.14 0.11 0.06 0.04 0.02 0.00 0.01 0.01 0.02 0.03 0.03 0.03 0.07 0.10 0.04 0.02 0.03 0.03 0.02 0.04 0.03 0.03 0.02 0.02 0.02 0.02 0.02 0.02 0.02 0.02 0.02 0.02 0.02 0.02 0.02 0.02 0.02 0.02 0.01 0.02 0.02 0.02 0.02 0.02
0.03 0.05 0.07 0.11 0.12 0.08 0.05 0.04 0.03 0.02 0.02 0.01 0.02 0.03 0.02 0.04 0.03 0.04 0.04 0.02 0.02 0.02 0.02 0.02 0.03 0.03 0.02 0.01 0.02 0.02 0.02 0.02 0.02 0.01 0.01 0.02 0.02 0.02 0.01 0.02 0.02 0.02 0.02 0.01 0.01 0.01 0.02 0.02 0.01
0.05 0.09 0.11 0.12 0.10 0.06 0.03 0.03 0.02 0.03 0.02 0.01 0.02 0.03 0.04 0.06 0.03 0.02 0.01 0.01 0.01 0.03 0.03 0.02 0.02 0.03 0.02 0.01 0.01 0.01 0.01 0.01 0.01 0.01 0.01 0.01 0.02 0.02 0.02 0.01 0.01 0.01 0.01 0.01 0.01 0.01 0.01 0.01 0.00
0.09 0.09 0.12 0.13 0.10 0.05 0.03 0.02 0.03 0.04 0.02 0.01 0.02 0.02 0.06 0.08 0.07 0.04 0.02 0.02 0.02 0.02 0.02 0.01 0.01 0.02 0.02 0.02 0.01 0.01 0.01 0.01 0.01 0.00 0.00 0.01 0.01 0.01 0.02 0.01 0.01 0.01 0.01 0.01 0.01 0.01 0.01 0.01 0.00
0.09 0.10 0.13 0.13 0.11 0.08 0.04 0.03 0.04 0.04 0.03 0.02 0.02 0.02 0.04 0.07 0.06 0.04 0.02 0.02 0.01 0.01 0.01 0.01 0.01 0.01 0.02 0.01 0.01 0.01 0.00 0.00 0.00 0.00 0.00 0.00 0.00 0.00 0.00 0.00 0.00 0.00 0.00 0.00 0.00 0.00 0.00 0.00 0.00
0.04 0.08 0.14 0.15 0.13 0.11 0.04 0.03 0.03 0.04 0.03 0.01 0.02 0.03 0.03 0.03 0.04 0.02 0.01 0.02 0.02 0.02 0.02 0.01 0.01 0.01 0.01 0.01 0.01 0.01 0.00 0.00 0.00 0.00 0.00 0.00 0.00 0.00 0.00 0.00 0.00 0.00 0.00 0.00 0.00 0.00 0.00 0.00 0.00
0.02 0.10 0.15 0.16 0.14 0.10 0.05 0.05 0.04 0.02 0.02 0.02 0.02 0.02 0.02 0.02 0.02 0.01 0.01 0.02 0.02 0.02 0.02 0.01 0.01 0.01 0.01 0.00 0.00 0.00 0.00 0.00 0.00 0.00 0.00 0.00 0.00 0.00 0.00 0.00 0.00 0.00 0.00 0.00 0.00 0.00 0.01 0.01 0.01
0.05 0.15 0.14 0.09 0.06 0.06 0.06 0.05 0.04 0.05 0.04 0.04 0.03 0.02 0.03 0.04 0.02 0.01 0.01 0.01 0.01 0.01 0.01 0.00 0.01 0.01 0.00 0.00 0.00 0.00 0.00 0.00 0.00 0.00 0.00 0.00 0.00 0.00 0.00 0.01 0.00 0.00 0.00 0.00 0.01 0.01 0.01 0.01 0.02
0.04 0.12 0.09 0.04 0.03 0.04 0.05 0.04 0.03 0.07 0.08 0.05 0.04 0.03 0.02 0.02 0.02 0.01 0.01 0.00 0.00 0.00 0.00 0.00 0.00 0.00 0.00 0.00 0.00 0.00 0.00 0.00 0.00 0.00 0.00 0.00 0.00 0.00 0.00 0.00 0.01 0.01 0.01 0.01 0.01 0.01 0.01 0.00 0.01
0.03 0.05 0.05 0.05 0.04 0.04 0.04 0.04 0.05 0.06 0.06 0.04 0.04 0.03 0.01 0.01 0.01 0.01 0.01 0.00 0.00 0.00 0.00 0.00 0.00 0.00 0.00 0.00 0.00 0.00 0.00 0.00 0.00 0.00 0.00 0.00 0.00 0.00 0.00 0.00 0.00 0.01 0.01 0.01 0.01 0.01 0.01 0.01 0.00
0.03 0.06 0.07 0.05 0.03 0.03 0.04 0.05 0.05 0.04 0.03 0.01 0.01 0.02 0.02 0.02 0.01 0.00 0.00 0.00 0.00 0.00 0.00 0.00 0.00 0.00 0.00 0.00 0.00 0.00 0.00 0.00 0.00 0.00 0.00 0.00 0.00 0.00 0.00 0.00 0.00 0.00 0.00 0.00 0.01 0.02 0.01 0.01 0.01
0.02 0.05 0.08 0.07 0.04 0.04 0.08 0.06 0.04 0.03 0.02 0.02 0.01 0.02 0.02 0.01 0.00 0.00 0.00 0.00 0.00 0.00 0.00 0.00 0.00 0.00 0.00 0.00 0.00 0.00 0.00 0.00 0.00 0.00 0.00 0.00 0.00 0.00 0.00 0.00 0.00 0.00 0.00 0.00 0.01 0.02 0.02 0.02 0.02
0.02 0.06 0.10 0.12 0.07 0.06 0.09 0.10 0.05 0.03 0.01 0.01 0.02 0.02 0.01 0.01 0.00 0.00 0.00 0.00 0.00 0.00 0.00 0.00 0.00 0.00 0.00 0.00 0.00 0.00 0.00 0.00 0.00 0.00 0.00 0.00 0.00 0.00 0.00 0.00 0.00 0.00 0.00 0.00 0.00 0.01 0.02 0.02 0.02
0.05 0.11 0.14 0.14 0.09 0.06 0.07 0.12 0.06 0.03 0.01 0.01 0.02 0.02 0.01 0.01 0.00 0.00 0.00 0.00 0.00 0.00 0.00 0.00 0.00 0.00 0.00 0.00 0.00 0.00 0.00 0.00 0.00 0.00 0.00 0.00 0.00 0.00 0.00 0.00 0.00 0.00 0.00 0.00 0.00 0.01 0.01 0.03 0.04
0.10 0.14 0.14 0.16 0.10 0.07 0.08 0.10 0.06 0.04 0.02 0.01 0.02 0.03 0.02 0.01 0.00 0.00 0.00 0.00 0.00 0.00 0.00 0.00 0.00 0.00 0.00 0.00 0.00 0.00 0.00 0.00 0.00 0.00 0.00 0.00 0.00 0.00 0.00 0.00 0.00 0.00 0.00 0.00 0.00 0.01 0.03 0.04 0.04
0.08 0.12 0.12 0.13 0.10 0.09 0.08 0.07 0.07 0.06 0.04 0.03 0.02 0.02 0.01 0.01 0.00 0.00 0.00 0.00 0.00 0.00 0.00 0.00 0.00 0.00 0.00 0.00 0.00 0.00 0.00 0.00 0.00 0.00 0.00 0.00 0.00 0.00 0.00 0.00 0.00 0.00 0.00 0.00 0.00 0.01 0.03 0.04 0.03
0.06 0.09 0.11 0.10 0.09 0.10 0.09 0.07 0.07 0.06 0.05 0.05 0.03 0.02 0.01 0.00 0.01 0.00 0.00 0.00 0.00 0.00 0.00 0.00 0.00 0.00 0.00 0.00 0.00 0.00 0.00 0.00 0.00 0.00 0.00 0.00 0.00 0.00 0.00 0.00 0.00 0.00 0.01 0.01 0.01 0.02 0.03 0.03 0.03
0.04 0.08 0.11 0.11 0.11 0.11 0.11 0.08 0.07 0.06 0.05 0.04 0.03 0.02 0.01 0.00 0.01 0.00 0.00 0.00 0.00 0.00 0.00 0.00 0.00 0.00 0.00 0.00 0.00 0.00 0.00 0.00 0.00 0.00 0.00 0.00 0.00 0.00 0.00 0.00 0.00 0.00 0.01 0.01 0.01 0.01 0.03 0.03 0.02
0.07 0.08 0.08 0.10 0.10 0.10 0.10 0.10 0.09 0.07 0.05 0.03 0.02 0.01 0.00 0.00 0.00 0.00 0.00 0.00 0.00 0.00 0.00 0.00 0.00 0.00 0.00 0.00 0.00 0.00 0.00 0.00 0.00 0.00 0.00 0.00 0.00 0.00 0.00 0.00 0.00 0.00 0.00 0.01 0.01 0.01 0.02 0.03 0.02
0.10 0.08 0.07 0.07 0.10 0.11 0.09 0.12 0.09 0.06 0.04 0.02 0.01 0.01 0.00 0.00 0.00 0.00 0.00 0.00 0.00 0.00 0.00 0.00 0.00 0.00 0.00 0.00 0.00 0.00 0.00 0.00 0.00 0.00 0.00 0.00 0.00 0.00 0.00 0.00 0.00 0.00 0.00 0.01 0.01 0.01 0.02 0.02 0.03
0.08 0.06 0.06 0.07 0.10 0.10 0.07 0.08 0.06 0.03 0.02 0.02 0.01 0.00 0.00 0.00 0.00 0.00 0.00 0.00 0.00 0.00 0.00 0.00 0.00 0.00 0.00 0.00 0.00 0.00 0.00 0.00 0.00 0.00 0.00 0.00 0.00 0.00 0.00 0.00 0.00 0.00 0.00 0.01 0.01 0.01 0.01 0.00 0.02
0.06 0.07 0.07 0.08 0.11 0.12 0.07 0.07 0.05 0.02 0.01 0.01 0.01 0.00 0.00 0.00 0.00 0.00 0.00 0.00 0.01 0.00 0.00 0.00 0.01 0.00 0.00 0.00 0.00 0.00 0.00 0.00 0.00 0.00 0.00 0.00 0.00 0.00 0.00 0.00 0.00 0.00 0.00 0.00 0.01 0.01 0.01 0.01 0.01
0.05 0.08 0.11 0.13 0.13 0.10 0.06 0.07 0.03 0.01 0.01 0.02 0.01 0.00 0.00 0.00 0.00 0.00 0.00 0.00 0.01 0.00 0.00 0.00 0.00 0.00 0.00 0.00 0.00 0.00 0.00 0.00 0.00 0.00 0.00 0.00 0.00 0.00 0.00 0.00 0.00 0.00 0.00 0.00 0.00 0.00 0.00 0.00 0.00
0.03 0.06 0.09 0.09 0.09 0.07 0.05 0.04 0.01 0.01 0.00 0.01 0.01 0.00 0.00 0.00 0.00 0.00 0.00 0.00 0.01 0.01 0.00 0.00 0.00 0.00 0.00 0.00 0.00 0.00 0.00 0.00 0.00 0.00 0.00 0.00 0.00 0.00 0.00 0.00 0.00 0.00 0.00 0.00 0.00 0.00 0.00 0.00 0.00
0.03 0.04 0.05 0.07 0.06 0.07 0.04 0.01 0.01 0.00 0.00 0.00 0.00 0.00 0.00 0.00 0.01 0.00 0.00 0.01 0.01 0.01 0.00 0.00 0.00 0.00 0.00 0.00 0.00 0.00 0.00 0.00 0.00 0.00 0.00 0.00 0.00 0.00 0.00 0.00 0.00 0.00 0.00 0.00 0.00 0.00 0.00 0.00 0.00
0.02 0.02 0.04 0.06 0.07 0.07 0.04 0.01 0.00 0.00 0.00 0.00 0.00 0.00 0.00 0.00 0.01 0.00 0.01 0.01 0.01 0.01 0.00 0.00 0.00 0.00 0.00 0.00 0.00 0.00 0.00 0.00 0.00 0.00 0.00 0.00 0.00 0.00 0.00 0.00 0.00 0.00 0.00 0.00 0.00 0.00 0.00 0.00 0.00
0.03 0.02 0.03 0.04 0.03 0.04 0.05 0.02 0.00 0.00 0.00 0.00 0.00 0.00 0.00 0.00 0.00 0.00 0.00 0.01 0.01 0.01 0.01 0.00 0.00 0.00 0.00 0.00 0.00 0.00 0.00 0.00 0.00 0.00 0.00 0.00 0.00 0.00 0.00 0.00 0.00 0.00 0.00 0.00 0.00 0.00 0.00 0.00 0.00
0.02 0.01 0.02 0.05 0.03 0.01 0.02 0.02 0.00 0.00 0.00 0.00 0.00 0.00 0.00 0.00 0.00 0.00 0.00 0.01 0.01 0.01 0.00 0.00 0.00 0.00 0.00 0.00 0.00 0.00 0.00 0.00 0.00 0.00 0.00 0.00 0.00 0.00 0.00 0.00 0.00 0.00 0.00 0.00 0.00 0.00 0.00 0.00 0.00
MSLP
1008.29 1008.69 1009.38 1010.25 1011.15 1011.92 1012.43 1012.64 1012.56 1012.31 1012.01 1011.82 1011.83 1012.07 1012.51 1013.04 1013.56 1013.93 1014.11 1014.06 1013.86 1013.58 1013.34 1013.20 1013.22 1013.40 1013.66 1013.96 1014.20 1014.34 1014.36 1014.28 1014.14 1014.01 1013.93 1013.93 1014.00 1014.13 1014.25 1014.33 1014.33 1014.25 1014.10 1013.92 1013.74 1013.60 1013.51 1013.47 1013.45
1008.84 1009.37 1010.12 1010.95 1011.72 1012.30 1012.59 1012.60 1012.37 1012.02 1011.72 1011.58 1011.68 1012.01 1012.52 1013.10 1013.62 1013.97 1014.10 1014.03 1013.82 1013.58 1013.39 1013.34 1013.46 1013.71 1014.04 1014.36 1014.60 1014.72 1014.71 1014.59 1014.44 1014.30 1014.23 1014.24 1014.32 1014.43 1014.53 1014.58 1014.54 1014.41 1014.23 1014.02 1013.82 1013.66 1013.56 1013.50 1013.46
1009.52 1010.17 1010.93 1011.68 1012.28 1012.64 1012.70 1012.50 1012.13 1011.73 1011.45 1011.39 1011.59 1012.03 1012.62 1013.23 1013.74 1014.06 1014.14 1014.04 1013.83 1013.62 1013.49 1013.53 1013.73 1014.05 1014.43 1014.77 1015.00 1015.10 1015.06 1014.92 1014.76 1014.62 1014.55 1014.56 1014.64 1014.74 1014.81 1014.82 1014.74 1014.57 1014.36 1014.13 1013.91 1013.75 1013.63 1013.55 1013.48
1010.26 1010.98 1011.72 1012.36 1012.78 1012.92 1012.76 1012.39 1011.92 1011.50 1011.27 1011.31 1011.63 1012.18 1012.84 1013.47 1013.96 1014.23 1014.27 1014.13 1013.91 1013.72 1013.65 1013.75 1014.02 1014.40 1014.80 1015.15 1015.37 1015.45 1015.38 1015.22 1015.05 1014.90 1014.84 1014.85 1014.93 1015.01 1015.06 1015.04 1014.93 1014.74 1014.51 1014.26 1014.04 1013.87 1013.74 1013.64 1013.54
1010.97 1011.72 1012.41 1012.93 1013.17 1013.11 1012.78 1012.28 1011.76 1011.37 1011.23 1011.39 1011.83 1012.47 1013.18 1013.82 1014.28 1014.49 1014.46 1014.28 1014.05 1013.87 1013.84 1013.99 1014.30 1014.71 1015.13 1015.46 1015.66 1015.71 1015.62 1015.45 1015.26 1015.13 1015.07 1015.09 1015.16 1015.24 1015.27 1015.23 1015.10 1014.90 1014.66 1014.41 1014.19 1014.02 1013.88 1013.76 1013.64
1011.57 1012.32 1012.94 1013.33 1013.41 1013.20 1012.75 1012.20 1011.69 1011.37 1011.35 1011.63 1012.19 1012.90 1013.64 1014.26 1014.65 1014.79 1014.70 1014.48 1014.22 1014.05 1014.04 1014.21 1014.55 1014.96 1015.36 1015.66 1015.83 1015.84 1015.73 1015.55 1015.38 1015.26 1015.22 1015.25 1015.33 1015.40 1015.42 1015.37 1015.23 1015.02 1014.78 1014.55 1014.34 1014.16 1014.03 1013.90 1013.77
1012.04 1012.75 1013.29 1013.55 1013.52 1013.20 1012.71 1012.16 1011.72 1011.51 1011.61 1012.02 1012.66 1013.41 1014.14 1014.71 1015.03 1015.09 1014.94 1014.66 1014.39 1014.22 1014.22 1014.40 1014.72 1015.11 1015.47 1015.73 1015.85 1015.83 1015.71 1015.54 1015.38 1015.29 1015.28 1015.33 1015.42 1015.49 1015.51 1015.44 1015.30 1015.10 1014.87 1014.64 1014.44 1014.28 1014.15 1014.03 1013.89
1012.40 1013.04 1013.48 1013.64 1013.52 1013.16 1012.68 1012.20 1011.86 1011.78 1012.00 1012.50 1013.20 1013.95 1014.63 1015.12 1015.35 1015.33 1015.11 1014.81 1014.52 1014.35 1014.35 1014.52 1014.82 1015.17 1015.48 1015.69 1015.76 1015.72 1015.59 1015.43 1015.31 1015.25 1015.27 1015.35 1015.45 1015.52 1015.53 1015.46 1015.32 1015.11 1014.89 1014.68 1014.49 1014.35 1014.23 1014.12 1014.00
1012.68 1013.23 1013.57 1013.65 1013.48 1013.13 1012.70 1012.32 1012.12 1012.16 1012.49 1013.05 1013.74 1014.45 1015.04 1015.43 1015.57 1015.47 1015.21 1014.88 1014.60 1014.44 1014.45 1014.61 1014.87 1015.17 1015.42 1015.57 1015.61 1015.55 1015.43 1015.30 1015.21 1015.20 1015.25 1015.35 1015.46 1015.53 1015.53 1015.45 1015.30 1015.09 1014.87 1014.67 1014.50 1014.37 1014.27 1014.18 1014.08
1012.91 1013.37 1013.62 1013.64 1013.46 1013.15 1012.82 1012.56 1012.48 1012.64 1013.03 1013.59 1014.24 1014.86 1015.35 1015.62 1015.66 1015.50 1015.21 1014.90 1014.64 1014.51 1014.53 1014.68 1014.92 1015.16 1015.36 1015.46 1015.47 1015.40 1015.29 1015.19 1015.15 1015.18 1015.26 1015.38 1015.49 1015.55 1015.54 1015.44 1015.28 1015.07 1014.86 1014.66 1014.50 1014.38 1014.30 1014.23 1014.16
1013.15 1013.50 1013.67 1013.65 1013.49 1013.26 1013.03 1012.90 1012.94 1013.17 1013.58 1014.11 1014.67 1015.17 1015.52 1015.68 1015.64 1015.44 1015.15 1014.87 1014.67 1014.58 1014.63 1014.78 1014.99 1015.20 1015.35 1015.42 1015.41 1015.34 1015.25 1015.19 1015.18 1015.24 1015.35 1015.47 1015.57 1015.62 1015.59 1015.48 1015.30 1015.10 1014.89 1014.70 1014.55 1014.44 1014.37 1014.32 1014.27
1013.38 1013.63 1013.74 1013.71 1013.59 1013.45 1013.34 1013.32 1013.45 1013.72 1014.11 1014.57 1015.01 1015.36 1015.58 1015.63 1015.53 1015.32 1015.07 1014.85 1014.72 1014.69 1014.78 1014.95 1015.15 1015.33 1015.45 1015.50 1015.48 1015.41 1015.35 1015.32 1015.34 1015.42 1015.54 1015.65 1015.74 1015.77 1015.72 1015.59 1015.42 1015.22 1015.01 1014.84 1014.70 1014.60 1014.54 1014.50 1014.47
1013.59 1013.76 1013.82 1013.81 1013.75 1013.70 1013.70 1013.79 1013.97 1014.25 1014.59 1014.94 1015.24 1015.46 1015.55 1015.52 1015.39 1015.20 1015.01 1014.87 1014.82 1014.87 1015.00 1015.19 1015.38 1015.55 1015.65 1015.69 1015.67 1015.63 1015.59 1015.59 1015.63 1015.71 1015.82 1015.92 1015.99 1015.99 1015.93 1015.81 1015.64 1015.45 1015.27 1015.11 1014.99 1014.89 1014.83 1014.80 1014.78
1013.75 1013.85 1013.90 1013.91 1013.93 1013.98 1014.08 1014.25 1014.47 1014.72 1014.98 1015.22 1015.39 1015.48 1015.48 1015.40 1015.27 1015.13 1015.02 1014.97 1015.01 1015.12 1015.29 1015.49 1015.68 1015.84 1015.93 1015.98 1015.98 1015.96 1015.95 1015.96 1016.01 1016.09 1016.18 1016.26 1016.29 1016.28 1016.22 1016.11 1015.96 1015.81 1015.66 1015.53 1015.42 1015.34 1015.28 1015.23 1015.21
1013.84 1013.90 1013.95 1014.02 1014.12 1014.27 1014.46 1014.68 1014.90 1015.12 1015.29 1015.41 1015.47 1015.47 1015.41 1015.32 1015.22 1015.15 1015.13 1015.16 1015.27 1015.43 1015.62 1015.83 1016.01 1016.15 1016.25 1016.31 1016.33 1016.34 1016.36 1016.39 1016.44 1016.51 1016.57 1016.61 1016.62 1016.60 1016.55 1016.46 1016.36 1016.25 1016.15 1016.06 1015.98 1015.90 1015.84 1015.79 1015.74
1013.87 1013.91 1013.99 1014.13 1014.33 1014.57 1014.83 1015.08 1015.29 1015.44 1015.53 1015.55 1015.52 1015.45 1015.37 1015.30 1015.27 1015.27 1015.33 1015.44 1015.59 1015.78 1015.97 1016.15 1016.31 1016.45 1016.55 1016.62 1016.68 1016.72 1016.77 1016.82 1016.87 1016.91 1016.94 1016.95 1016.95 1016.92 1016.88 1016.83 1016.78 1016.74 1016.69 1016.65 1016.60 1016.54 1016.47 1016.41 1016.35
1013.87 1013.93 1014.07 1014.30 1014.59 1014.91 1015.21 1015.46 1015.63 1015.71 1015.70 1015.64 1015.54 1015.45 1015.39 1015.37 1015.41 1015.50 1015.63 1015.79 1015.96 1016.13 1016.29 1016.44 1016.56 1016.68 1016.78 1016.88 1016.98 1017.07 1017.15 1017.21 1017.26 1017.28 1017.28 1017.26 1017.24 1017.21 1017.19 1017.19 1017.20 1017.22 1017.23 1017.24 1017.22 1017.19 1017.12 1017.05 1016.98
1013.90 1014.02 1014.24 1014.57 1014.95 1015.33 1015.65 1015.87 1015.98 1015.96 1015.86 1015.71 1015.57 1015.47 1015.44 1015.49 1015.62 1015.79 1015.99 1016.17 1016.34 1016.47 1016.58 1016.66 1016.74 1016.84 1016.94 1017.07 1017.21 1017.35 1017.47 1017.56 1017.61 1017.61 1017.58 1017.54 1017.50 1017.47 1017.47 1017.51 1017.58 1017.66 1017.73 1017.79 1017.81 1017.79 1017.74 1017.67 1017.59
1014.01 1014.22 1014.57 1015.00 1015.46 1015.87 1016.18 1016.33 1016.33 1016.20 1015.99 1015.76 1015.58 1015.49 1015.51 1015.64 1015.85 1016.11 1016.35 1016.55 1016.69 1016.77 1016.81 1016.83 1016.86 1016.93 1017.05 1017.21 1017.40 1017.59 1017.75 1017.87 1017.92 1017.91 1017.86 1017.80 1017.74 1017.71 1017.73 1017.80 1017.92 1018.05 1018.17 1018.27 1018.32 1018.33 1018.29 1018.23 1018.16
1014.24 1014.58 1015.06 1015.60 1016.12 1016.54 1016.79 1016.85 1016.71 1016.43 1016.09 1015.77 1015.55 1015.46 1015.54 1015.75 1016.05 1016.37 1016.66 1016.87 1016.98 1017.01 1016.98 1016.94 1016.93 1016.98 1017.11 1017.31 1017.55 1017.80 1018.01 1018.16 1018.22 1018.21 1018.14 1018.06 1017.98 1017.95 1017.99 1018.08 1018.22 1018.39 1018.55 1018.67 1018.75 1018.78 1018.76 1018.72 1018.68
1014.59 1015.09 1015.70 1016.34 1016.90 1017.29 1017.45 1017.36 1017.06 1016.61 1016.12 1015.69 1015.41 1015.33 1015.45 1015.73 1016.11 1016.50 1016.84 1017.06 1017.16 1017.16 1017.08 1017.00 1016.96 1017.02 1017.17 1017.41 1017.71 1018.01 1018.27 1018.45 1018.53 1018.52 1018.44 1018.34 1018.26 1018.22 1018.26 1018.36 1018.52 1018.70 1018.88 1019.02 1019.11 1019.16 1019.17 1019.15 1019.14
1015.01 1015.68 1016.42 1017.14 1017.71 1018.04 1018.07 1017.81 1017.31 1016.66 1016.01 1015.46 1015.12 1015.02 1015.17 1015.52 1015.97 1016.44 1016.83 1017.09 1017.21 1017.19 1017.11 1017.01 1016.98 1017.05 1017.23 1017.52 1017.87 1018.23 1018.53 1018.74 1018.84 1018.84 1018.76 1018.65 1018.56 1018.53 1018.56 1018.67 1018.83 1019.02 1019.19 1019.34 1019.44 1019.49 1019.52 1019.54 1019.56
1015.45 1016.26 1017.10 1017.86 1018.41 1018.64 1018.53 1018.08 1017.37 1016.53 1015.71 1015.04 1014.62 1014.51 1014.68 1015.08 1015.61 1016.15 1016.61 1016.93 1017.09 1017.11 1017.04 1016.97 1016.97 1017.07 1017.30 1017.64 1018.04 1018.44 1018.78 1019.02 1019.15 1019.16 1019.09 1018.99 1018.90 1018.87 1018.90 1019.01 1019.17 1019.35 1019.51 1019.65 1019.75 1019.81 1019.85 1019.89 1019.96
1015.82 1016.73 1017.63 1018.39 1018.87 1018.99 1018.71 1018.08 1017.18 1016.15 1015.18 1014.40 1013.92 1013.78 1013.98 1014.42 1015.02 1015.65 1016.19 1016.59 1016.81 1016.90 1016.90 1016.88 1016.93 1017.08 1017.36 1017.75 1018.19 1018.62 1019.00 1019.27 1019.42 1019.45 1019.40 1019.32 1019.25 1019.23 1019.27 1019.38 1019.53 1019.70 1019.86 1019.99 1020.08 1020.13 1020.18 1020.24 1020.33
1016.07 1017.02 1017.92 1018.62 1019.01 1018.99 1018.55 1017.75 1016.68 1015.52 1014.43 1013.57 1013.04 1012.90 1013.11 1013.61 1014.27 1014.98 1015.61 1016.10 1016.42 1016.60 1016.68 1016.75 1016.86 1017.08 1017.40 1017.83 1018.30 1018.77 1019.17 1019.47 1019.64 1019.70 1019.68 1019.63 1019.59 1019.59 1019.65 1019.77 1019.93 1020.09 1020.24 1020.35 1020.43 1020.48 1020.53 1020.60 1020.71
1016.18 1017.10 1017.92 1018.52 1018.77 1018.61 1018.03 1017.08 1015.90 1014.65 1013.50 1012.60 1012.07 1011.94 1012.18 1012.73 1013.46 1014.24 1014.96 1015.54 1015.97 1016.25 1016.43 1016.58 1016.77 1017.05 1017.42 1017.88 1018.37 1018.86 1019.27 1019.59 1019.79 1019.89 1019.92 1019.91 1019.91 1019.95 1020.04 1020.17 1020.34 1020.50 1020.64 1020.75 1020.82 1020.86 1020.91 1020.98 1021.09
1016.15 1016.96 1017.65 1018.09 1018.19 1017.88 1017.17 1016.14 1014.90 1013.62 1012.47 1011.60 1011.11 1011.02 1011.31 1011.91 1012.70 1013.54 1014.34 1015.01 1015.53 1015.90 1016.18 1016.42 1016.69 1017.02 1017.43 1017.90 1018.41 1018.90 1019.33 1019.67 1019.89 1020.03 1020.10 1020.15 1020.20 1020.28 1020.41 1020.57 1020.75 1020.92 1021.06 1021.17 1021.23 1021.27 1021.32 1021.38 1021.49
1016.02 1016.66 1017.16 1017.41 1017.33 1016.88 1016.08 1015.00 1013.77 1012.53 1011.45 1010.67 1010.25 1010.24 1010.60 1011.25 1012.09 1012.99 1013.84 1014.58 1015.17 1015.63 1015.99 1016.30 1016.62 1017.00 1017.43 1017.92 1018.43 1018.92 1019.36 1019.71 1019.96 1020.14 1020.26 1020.37 1020.47 1020.60 1020.77 1020.96 1021.16 1021.35 1021.50 1021.60 1021.67 1021.71 1021.75 1021.81 1021.91
1015.84 1016.27 1016.54 1016.57 1016.30 1015.72 1014.86 1013.78 1012.61 1011.48 1010.53 1009.88 1009.59 1009.68 1010.11 1010.82 1011.69 1012.62 1013.50 1014.28 1014.92 1015.44 1015.86 1016.23 1016.60 1017.00 1017.46 1017.95 1018.45 1018.94 1019.38 1019.74 1020.03 1020.25 1020.42 1020.57 1020.73 1020.91 1021.12 1021.34 1021.56 1021.76 1021.92 1022.04 1022.11 1022.16 1022.20 1022.26 1022.35
1015.65 1015.84 1015.86 1015.66 1015.21 1014.52 1013.61 1012.58 1011.51 1010.53 1009.75 1009.27 1009.13 1009.33 1009.85 1010.60 1011.49 1012.42 1013.31 1014.10 1014.77 1015.32 1015.78 1016.19 1016.60 1017.03 1017.49 1017.99 1018.49 1018.98 1019.42 1019.80 1020.11 1020.37 1020.58 1020.78 1020.99 1021.21 1021.44 1021.69 1021.93 1022.14 1022.32 1022.45 1022.54 1022.60 1022.64 1022.70 1022.79
Thickness
5805 5810 5811 5799 5779 5767 5764 5773 5784 5785 5789 5798 5802 5797 5784 5776 5767 5753 5772 5786 5786 5781 5776 5773 5771 5770 5768 5766 5764 5763 5761 5759 5758 5756 5754 5753 5752 5750 5749 5748 5747 5747 5746 5745 5745 5745 5745 5745 5745
5806 5810 5802 5788 5766 5755 5760 5775 5778 5784 5794 5802 5800 5796 5785 5776 5778 5774 5777 5784 5784 5780 5775 5771 5770 5768 5766 5764 5762 5760 5759 5757 5755 5753 5752 5750 5749 5748 5746 5745 5745 5744 5743 5743 5743 5743 5743 5743 5743
5806 5806 5789 5776 5764 5758 5761 5777 5782 5792 5802 5800 5793 5790 5781 5774 5778 5776 5781 5785 5782 5777 5772 5769 5767 5766 5764 5761 5759 5758 5756 5754 5752 5751 5749 5748 5747 5745 5744 5743 5742 5741 5741 5740 5740 5740 5740 5741 5741
5801 5793 5785 5770 5761 5771 5775 5781 5788 5789 5794 5798 5791 5778 5777 5784 5782 5782 5785 5785 5779 5775 5770 5767 5765 5764 5762 5760 5757 5755 5753 5752 5750 5749 5747 5746 5744 5743 5742 5740 5740 5739 5739 5738 5738 5737 5738 5738 5739
5796 5781 5767 5761 5765 5775 5784 5788 5791 5785 5787 5789 5784 5767 5764 5779 5785 5785 5784 5782 5777 5773 5769 5766 5764 5762 5760 5758 5756 5754 5752 5750 5748 5747 5745 5744 5743 5741 5740 5738 5737 5736 5736 5735 5735 5735 5735 5735 5736
5779 5774 5757 5752 5761 5774 5783 5789 5788 5783 5783 5784 5778 5766 5762 5777 5780 5781 5782 5780 5777 5773 5769 5766 5763 5761 5759 5757 5754 5752 5750 5748 5747 5745 5744 5742 5741 5740 5738 5736 5735 5734 5733 5732 5732 5732 5732 5733 5734
5769 5762 5754 5756 5758 5765 5777 5789 5784 5780 5780 5783 5783 5765 5761 5771 5777 5780 5780 5779 5777 5774 5770 5767 5764 5761 5758 5756 5753 5751 5749 5748 5746 5745 5743 5742 5740 5738 5737 5735 5733 5732 5730 5730 5729 5729 5730 5730 5732
5775 5762 5754 5754 5753 5758 5777 5785 5786 5781 5778 5790 5788 5767 5758 5769 5777 5779 5778 5776 5775 5774 5772 5769 5766 5763 5759 5756 5754 5752 5750 5748 5746 5744 5744 5742 5740 5738 5736 5734 5732 5730 5729 5728 5727 5727 5728 5729 5730
5778 5754 5746 5751 5752 5758 5775 5776 5781 5789 5783 5784 5786 5779 5774 5776 5777 5774 5771 5771 5771 5771 5771 5770 5768 5765 5762 5759 5755 5752 5750 5748 5746 5745 5744 5743 5741 5739 5736 5733 5731 5729 5728 5727 5726 5726 5727 5728 5729
5766 5744 5749 5763 5766 5765 5771 5773 5776 5776 5770 5768 5770 5773 5776 5775 5773 5769 5767 5765 5765 5767 5769 5770 5768 5765 5762 5760 5756 5754 5751 5749 5747 5746 5745 5743 5742 5740 5737 5733 5731 5729 5728 5727 5726 5726 5726 5727 5728
5762 5749 5756 5765 5771 5771 5769 5771 5778 5768 5758 5762 5762 5765 5770 5771 5770 5768 5768 5767 5767 5768 5769 5770 5769 5767 5763 5759 5757 5754 5752 5749 5747 5746 5744 5742 5741 5739 5736 5733 5731 5730 5728 5727 5727 5727 5726 5728 5728
5758 5758 5763 5764 5770 5768 5766 5770 5769 5767 5764 5772 5772 5772 5771 5770 5769 5768 5767 5767 5767 5767 5767 5769 5769 5767 5763 5760 5757 5754 5752 5749 5747 5746 5744 5742 5740 5738 5736 5734 5732 5730 5728 5727 5727 5726 5726 5726 5727
5755 5756 5763 5765 5766 5766 5766 5763 5763 5763 5772 5775 5774 5772 5770 5770 5770 5771 5771 5769 5767 5765 5766 5767 5768 5766 5762 5759 5757 5754 5751 5749 5746 5745 5744 5741 5739 5737 5736 5734 5731 5730 5728 5726 5725 5724 5724 5724 5724
5755 5757 5758 5760 5761 5762 5757 5756 5758 5759 5770 5769 5768 5767 5770 5770 5771 5769 5769 5767 5766 5765 5765 5766 5765 5764 5762 5759 5757 5753 5751 5748 5746 5744 5743 5741 5739 5737 5734 5733 5730 5729 5727 5726 5724 5723 5722 5721 5722
5756 5748 5747 5750 5754 5754 5752 5742 5749 5760 5766 5762 5763 5765 5766 5769 5769 5768 5769 5768 5767 5766 5765 5763 5763 5762 5760 5758 5756 5753 5750 5748 5745 5743 5742 5740 5738 5735 5733 5731 5729 5728 5726 5725 5723 5721 5721 5720 5720
5746 5735 5726 5739 5748 5751 5742 5724 5747 5761 5760 5756 5758 5760 5761 5765 5768 5769 5770 5769 5769 5766 5763 5762 5763 5759 5757 5755 5754 5752 5749 5746 5744 5741 5740 5738 5737 5734 5732 5730 5728 5727 5725 5723 5721 5718 5717 5716 5717
5728 5718 5719 5729 5745 5746 5738 5726 5746 5759 5757 5753 5755 5756 5758 5761 5765 5768 5770 5770 5768 5766 5762 5760 5759 5757 5755 5753 5752 5750 5747 5745 5742 5739 5737 5736 5735 5733 5731 5729 5727 5726 5724 5722 5720 5717 5716 5714 5714
5717 5720 5722 5725 5739 5740 5733 5732 5744 5754 5755 5752 5754 5756 5758 5759 5762 5767 5769 5769 5768 5766 5763 5759 5757 5756 5754 5752 5750 5747 5745 5743 5741 5738 5735 5734 5733 5732 5730 5729 5727 5724 5722 5719 5718 5715 5715 5715 5715
5732 5726 5724 5728 5741 5735 5728 5730 5739 5749 5750 5750 5753 5756 5757 5759 5764 5767 5767 5766 5765 5763 5760 5757 5756 5754 5752 5749 5746 5742 5740 5740 5738 5736 5734 5733 5732 5731 5730 5728 5726 5724 5720 5718 5717 5715 5713 5713 5714
5733 5724 5720 5724 5736 5733 5725 5727 5740 5747 5750 5754 5755 5756 5758 5759 5761 5761 5762 5762 5762 5760 5759 5757 5755 5753 5750 5748 5746 5744 5742 5740 5737 5736 5734 5733 5731 5730 5729 5727 5725 5723 5720 5718 5716 5714 5711 5711 5713
5726 5721 5718 5718 5726 5731 5724 5719 5731 5743 5752 5755 5758 5761 5763 5760 5758 5758 5759 5759 5759 5757 5757 5756 5754 5752 5750 5748 5746 5743 5741 5739 5735 5733 5732 5732 5730 5729 5728 5727 5725 5723 5720 5717 5716 5714 5711 5707 5710
5714 5726 5724 5720 5715 5712 5719 5702 5722 5736 5742 5749 5754 5759 5761 5762 5761 5758 5757 5756 5756 5757 5758 5756 5754 5752 5749 5747 5744 5740 5736 5732 5733 5733 5732 5731 5730 5728 5727 5726 5725 5723 5720 5717 5715 5714 5712 5708 5705
5718 5727 5723 5719 5713 5711 5719 5711 5720 5738 5736 5744 5753 5759 5762 5762 5761 5758 5757 5756 5757 5756 5755 5754 5752 5750 5748 5746 5743 5740 5737 5735 5735 5734 5732 5731 5729 5728 5727 5725 5724 5722 5719 5717 5715 5713 5711 5708 5705
5723 5720 5716 5715 5708 5696 5714 5712 5715 5737 5744 5748 5754 5760 5762 5762 5761 5759 5758 5756 5755 5754 5753 5751 5748 5746 5746 5744 5742 5739 5736 5735 5732 5731 5730 5729 5728 5727 5726 5725 5723 5721 5719 5716 5714 5712 5710 5708 5706
5716 5703 5688 5683 5684 5694 5721 5716 5725 5752 5762 5760 5758 5761 5763 5762 5760 5757 5755 5752 5750 5750 5749 5748 5746 5743 5744 5743 5742 5740 5738 5736 5733 5731 5730 5728 5726 5725 5725 5724 5722 5720 5718 5716 5714 5712 5709 5707 5705
5709 5705 5687 5678 5683 5700 5719 5718 5740 5765 5771 5770 5767 5765 5764 5761 5761 5758 5755 5752 5750 5749 5748 5746 5744 5742 5742 5742 5741 5740 5738 5736 5734 5733 5731 5729 5727 5726 5725 5723 5721 5719 5717 5715 5713 5710 5708 5707 5705
5706 5705 5710 5698 5698 5697 5712 5729 5745 5763 5765 5766 5767 5765 5762 5761 5760 5758 5756 5754 5751 5749 5747 5746 5744 5742 5741 5741 5741 5739 5737 5735 5734 5733 5732 5730 5729 5727 5725 5723 5721 5719 5716 5714 5712 5708 5706 5705 5703
5719 5714 5707 5698 5690 5688 5708 5722 5729 5744 5752 5761 5763 5762 5761 5761 5760 5757 5756 5754 5752 5750 5748 5747 5746 5743 5741 5741 5740 5738 5736 5735 5733 5732 5730 5729 5728 5726 5725 5723 5721 5718 5715 5713 5710 5707 5705 5703 5702
5711 5711 5712 5711 5711 5697 5696 5718 5757 5756 5758 5759 5763 5765 5763 5762 5760 5758 5756 5755 5753 5751 5749 5747 5745 5743 5741 5740 5739 5736 5735 5734 5732 5730 5728 5727 5726 5725 5723 5722 5719 5717 5714 5711 5708 5706 5704 5701 5700
5721 5719 5716 5701 5704 5714 5707 5720 5768 5768 5769 5767 5766 5768 5767 5765 5762 5759 5756 5754 5752 5749 5748 5746 5745 5742 5740 5739 5737 5735 5733 5732 5730 5728 5727 5726 5724 5723 5722 5720 5717 5714 5712 5709 5707 5704 5702 5700 5697